This is the latest recevied weather packets stored in our database for station/object WR7DW-3. If no packets are shown the sender has not sent any weather packets the latest 10 day(s).
| Time | Temp. | Humidity | Pressure | Rain* | Wind** | Luminosity | Snow |
|---|---|---|---|---|---|---|---|
| 1778097576 | 6.11° C | 59% | 1009.4 hPa | 0 mm | - | - | - |
| 1778096676 | 5.56° C | 60% | 1009.6 hPa | 0 mm | - | - | - |
| 1778095776 | 4.44° C | 60% | 1009.8 hPa | 0 mm | - | - | - |
| 1778094876 | 4.44° C | 60% | 1010.2 hPa | 0 mm | - | - | - |
| 1778093976 | 3.89° C | 60% | 1010.2 hPa | 0 mm | - | - | - |
| 1778093076 | 3.33° C | 61% | 1010.4 hPa | 0 mm | - | - | - |
| 1778092176 | 3.33° C | 61% | 1010.4 hPa | 0 mm | - | - | - |
| 1778091276 | 2.78° C | 60% | 1010.5 hPa | 0 mm | - | - | - |
| 1778090376 | 2.78° C | 63% | 1010.7 hPa | 0 mm | - | - | - |
| 1778089476 | 2.22° C | 62% | 1011 hPa | 0 mm | - | - | - |
| 1778088576 | 1.67° C | 66% | 1011.1 hPa | 0 mm | - | - | - |
| 1778087676 | 1.67° C | 64% | 1011.2 hPa | 0 mm | - | - | - |
| 1778084976 | 0.56° C | 64% | 1011.2 hPa | 0 mm | - | - | - |
| 1778084076 | 1.11° C | 60% | 1011.3 hPa | 0 mm | - | - | - |
| 1778083176 | 0.56° C | 61% | 1011.3 hPa | 0 mm | - | - | - |
| 1778082276 | 0.56° C | 62% | 1011.4 hPa | 0 mm | - | - | - |
| 1778081376 | 0.56° C | 61% | 1011.5 hPa | 0 mm | - | - | - |
| 1778080476 | 0.56° C | 61% | 1011.4 hPa | 0 mm | - | - | - |
| 1778079576 | 0° C | 60% | 1011.5 hPa | 0 mm | - | - | - |
| 1778078676 | 0° C | 59% | 1011.6 hPa | 0 mm | - | - | - |
| 1778077776 | 0° C | 59% | 1011.7 hPa | 0 mm | - | - | - |
| 1778076876 | 0° C | 58% | 1011.9 hPa | 0 mm | - | - | - |
| 1778075976 | 0° C | 58% | 1011.9 hPa | 0 mm | - | - | - |
| 1778075076 | 0° C | 58% | 1012 hPa | 0 mm | - | - | - |
| 1778074176 | -0.56° C | 59% | 1012 hPa | 0 mm | - | - | - |
* Rain latest hour (hover to see other rain measurements)
** Current wind speed in m/s (hover to see current wind gust speed)